Regional Weather Roundup
Issued by NWS Goodland, KS

Home | Current Version | Previous Version | Text Only | Print | Product List | Glossary On
Versions: 1 2 3 4 5 6 7 8 9 10 11 12 13 14 15 16 17 18 19 20 21 22 23 24 25 26 27 28 29 30 31 32 33 34 35 36 37 38 39 40 41 42 43 44 45 46 47 48 49 50
000
ASUS43 KGLD 201808
RWRGLD

GOODLAND FORECAST AREA HOURLY WEATHER ROUNDUP
NATIONAL WEATHER SERVICE GOODLAND KS
1200 PM MDT FRI OCT 20 2017

...OFFICIAL OBSERVATIONS...

CITY           SKY/WX    TMP DP  RH WIND       PRES   REMARKS
GOODLAND KS    MOSUNNY   72  47  40 S16G28    29.65F
HILL CITY KS   MOSUNNY   75  53  46 S26G44    29.70F
IMPERIAL NEB   SUNNY     70  52  52 S15       29.63F
MCCOOK NEB     SUNNY     73  52  47 S26G35    29.65F
AKRON CO       SUNNY     71  34  25 W10       29.66F
BURLINGTON CO  CLOUDY    70  41  34 S13       29.68F
LIMON CO       CLOUDY    74  27  17 MISG      29.71F
$$

...UNOFFICIAL OBSERVATIONS...

CITY           SKY/WX    TMP DP  RH WIND       PRES   REMARKS
COLBY KS       CLOUDY    73  52  46 S18G29    29.68F
LENORA KS        N/A     70  32  24 S12         N/A
NORTON KS      SUNNY     73  46  38 S21G32    29.68F
SHARON SPRINGS   N/A     74  50  42 S18G26      N/A
TRENTON NEB      N/A     71  32  23 SW10        N/A
YUMA CO        FAIR      63  28  27 W5        29.65F
$$



USA.gov is the U.S. government's official web portal to all federal, state and local government web resources and services.